						0
					 | 
				
				
				
					
						
					 | 
				
				
					
						
					 | 
				
			
		
			
			
				
				
					
						 
					 | 
				
				
				
					
						
					 | 
				
				
				
					
					
					Asteroid 2012 FB1
					
					
					
					
						
					
					
						
							(Preview)
						
						
						
						
							
						
							
								Orbital elements:
2012 FB1                                                 Earth MOID = 0.1830 AU
Epoch 2012 Mar. 14.0 TT = JDT 2456000.5                 MPC
M   2.60735              (2000.0)            P               Q
n   0.43258642     Peri.  170.44710     -0.98052548     -0.19623969
a   1.7314932      Node   358.18067     +0.16025361     -0.77672088
e   0.3212400      Incl.   14.09453     +0.11352784     -0.59849366
P   2.28           H   24.2           G   0...                      
							 
							
						 
						
					
				 | 
				
					
						Blobrana
					 | 
				
				
					
						0
					 | 
				
				
				
					
						
					 | 
				
				
					
						
					 | 
				
			
		
			
			
				
				
					
						 
					 | 
				
				
				
					
						
					 | 
				
				
				
					
					
					Asteroid 2012 FM
					
					
					
					
						
					
					
						
							(Preview)
						
						
						
						
							
						
							
								Orbital elements:
2012 FM                                                  Earth MOID = 0.0208 AU
Epoch 2012 Mar. 14.0 TT = JDT 2456000.5                 MPC
M   3.04858              (2000.0)            P               Q
n   0.36339229     Peri.  151.20888     -0.95445152     -0.29816040
a   1.9448476      Node    11.46022     +0.26195613     -0.85517132
e   0.4855753      Incl.    3.19547     +0.14283303     -0.42400752
P   2.71           H   26.2           G   0.15...                      
							 
							
						 
						
					
				 | 
				
					
						Blobrana
					 | 
				
				
					
						0
					 | 
				
				
				
					
						
					 | 
				
				
					
						
					 | 
				
			
		
			
			
				
				
					
						 
					 | 
				
				
				
					
						
					 | 
				
				
				
					
					
					Asteroid 2012 FF
					
					
					
					
						
					
					
						
							(Preview)
						
						
						
						
							
						
							
								Orbital elements:
2012 FF                                                  Earth MOID = 0.1518 AU
Epoch 2012 Mar. 14.0 TT = JDT 2456000.5                 MPC
M 353.75242              (2000.0)            P               Q
n   0.51909064     Peri.   14.25346     -0.99702580     +0.03844294
a   1.5333475      Node   167.36897     -0.04535741     -0.99340648
e   0.2565443      Incl.   17.78599     +0.06230786     -0.10800791
P   1.90           H   23.9           G   0... 
							 
							
						 
						
					
				 | 
				
					
						Blobrana
					 | 
				
				
					
						0
					 | 
				
				
				
					
						
					 | 
				
				
					
						
					 | 
				
			
		
			
			
				
				
					
						 
					 | 
				
				
				
					
						
					 | 
				
				
				
					
					
					Asteroid 2012 EV14
					
					
					
					
						
					
					
						
							(Preview)
						
						
						
						
							
						
							
								Orbital elements:
2012 EV14                                                Earth MOID = 0.2123 AU
Epoch 2012 Mar. 14.0 TT = JDT 2456000.5                 MPC
M  28.98787              (2000.0)            P               Q
n   0.43066357     Peri.  297.57589     -0.38382714     -0.92187453
a   1.7366433      Node   174.17166     +0.91706868     -0.37383127
e   0.3956147      Incl.   31.55502     -0.10798962     +0.10196830
P   2.29           H   22.9... 
							 
							
						 
						
					
				 | 
				
					
						Blobrana
					 | 
				
				
					
						0
					 | 
				
				
				
					
						
					 | 
				
				
					
						
					 |